Regional Weather Roundup
Issued by NWS

Home | Current Version | Previous Version | Graphics & Text | Print | Product List | Glossary On
Versions: 1 2 3 4 5 6 7 8 9 10 11 12 13 14 15 16 17 18 19 20 21 22 23 24 25 26 27
000
ASUS45 KCYS 230710
RWRWY

WYOMING REGIONAL WEATHER ROUNDUP
NATIONAL WEATHER SERVICE CHEYENNE WY
1200 AM MST TUE JAN 23 2018

NOTE:  "FAIR" INDICATES FEW OR NO CLOUDS BELOW 12,000 FEET
WITH NO SIGNIFICANT WEATHER AND/OR OBSTRUCTIONS TO VISIBILITY.

WYZ001-230800-
YELLOWSTONE NATIONAL PARK

CITY           SKY/WX    TMP DP  RH WIND       PRES   REMARKS
LK YELLOWSTONE   N/A      6   3  87 CALM      30.16S
W YELLOWSTONE  NOT AVBL

$$
WYZ002>013-054>058-071-098>099-230800-
NORTHERN WYOMING

CITY           SKY/WX    TMP DP  RH WIND       PRES   REMARKS
JACKSON        LGT SNOW  15  13  91 E5        30.20S FOG     WCI   8
CODY           FAIR      30  14  51 W17       30.11S WCI  18
GREYBULL       FAIR      13  11  92 S6        30.17R WCI   4
WORLAND        MOCLDY    10   8  92 SE10      30.16R WCI  -4
SHERIDAN       CLOUDY    28  22  78 S8        30.10F WCI  20
BUFFALO        CLOUDY    29  19  66 N3        30.10S
GILLETTE       CLOUDY    29  22  75 W10       30.10R WCI  20
HULETT         FLURRIES  30  25  80 MISG      30.09S
NEWCASTLE      FAIR      21  14  73 N8        30.10S WCI  12

$$
WYZ014>020-022>026-101>103-230800-
CENTRAL WYOMING

CITY           SKY/WX    TMP DP  RH WIND       PRES   REMARKS
BIG PINEY      FAIR       5   1  83 VRB3      30.20R
PINEDALE       FAIR       9   5  85 W5        30.20R WCI   0
DUBOIS         CLOUDY    18  12  79 N12       30.10F WCI   5
LANDER         FAIR       9   4  80 S3        30.13S
RIVERTON       FAIR       7   1  76 SW3       30.15R
CASPER         CLOUDY    24  19  81 SW17      30.12R WCI  11
DOUGLAS        MOCLDY    15  11  83 CALM      30.12R

$$
WYZ021-027>030-104>119-230800-
SOUTHERN WYOMING

CITY           SKY/WX    TMP DP  RH WIND       PRES   REMARKS
EVANSTON       CLOUDY    21  18  88 S7        30.25R WCI  12
FORT BRIDGER   FAIR      21  20  98 W12       30.25  WCI   9
ROCK SPRINGS   FAIR      13  10  88 CALM      30.21R
DIXON            N/A     23  17  80 SW5       30.25S WCI  17
RAWLINS        CLOUDY    20  15  81 W29G35    30.14R WCI   1
SARATOGA       CLOUDY    21  14  73 NW6       30.16S WCI  14
LARAMIE        FAIR      18  11  74 W20       30.07S WCI   2
CHEYENNE       CLOUDY    26  15  63 NW9       30.08R WCI  17
TORRINGTON     CLOUDY    25  18  74 NW13      30.10S WCI  14

$$




USA.gov is the U.S. government's official web portal to all federal, state and local government web resources and services.